[Show "Revision History"] [Show "General Page Infos"] [Show "Page hits and edits"]

Revision History

Showing page edit history entries from 1 to 85 out of 85 entries total. (5 | 10 | 25 | 50 | 100 | 200 items per page)

# Date Size Editor Comment Action
85 2012-05-10 12:41:51 35374 to previous JukkaZitting Close the May report view
84 2012-05-10 11:58:39 36083 to previous JukkaZitting Reflow, unify formatting view
83 2012-05-10 11:47:26 36059 to previous JukkaZitting Note IPMC size view
82 2012-05-10 11:41:33 35949 to previous JukkaZitting Some final notes view
81 2012-05-10 10:20:08 34631 to previous JukkaZitting Describe the overall trend towards graduation view
80 2012-05-10 10:06:48 34255 to previous JukkaZitting Clerezza looks like it's close to graduation view
79 2012-05-10 10:04:37 34290 to previous JukkaZitting Categorize DeltaSpike as low diversity until we have a better picture of the community status. Otherwise the podling looks great. view
78 2012-05-10 09:42:20 34305 to previous JukkaZitting Classify Flex view
77 2012-05-10 09:18:35 34308 to previous JukkaZitting VCL looks ready to graduate view
76 2012-05-10 01:23:09 34332 to previous JukkaZitting Ambari having trouble with sustained activity view
75 2012-05-09 23:33:17 34342 to previous JukkaZitting Marking Lucene.NET as ready to graduate, though note my question on general@ about new committers view
74 2012-05-09 23:02:48 34342 to previous JukkaZitting NPanday experienced some drop in activity, but remains ready to graduate view
73 2012-05-09 23:00:01 34333 to previous JukkaZitting Stanbol looks ready to graduate view
72 2012-05-09 22:18:09 34333 to previous JukkaZitting Note Amber's issue with IP clearance as brought up by Ross view
71 2012-05-09 21:52:59 34042 to previous JukkaZitting CloudStack and Syncope are still in their first quarter view
70 2012-05-09 21:49:47 34045 to previous JukkaZitting Note graduating projects view
69 2012-05-09 21:21:48 33419 to previous JukkaZitting Add recent releases view
68 2012-05-09 20:38:32 32834 to previous OwenOmalley   view
67 2012-05-09 16:43:17 31965 to previous AlanCabrera   view
66 2012-05-09 16:17:41 31960 to previous JukkaZitting Nuvem is still at low activity view
65 2012-05-09 16:13:17 31960 to previous JukkaZitting Wink was reviewed by Dave Fisher view
64 2012-05-09 16:06:13 31960 to previous JukkaZitting Zeta Components has retired. Add a note about the name moving with the code to GitHub. view
63 2012-05-09 15:56:07 31761 to previous JukkaZitting Wookie looks ready to graduate view
62 2012-05-09 15:42:48 31755 to previous JukkaZitting SIS is progressing. It was close to dead last year (3 commits in 2011) and though it still isn't too active (14 commits so far this year), it's clearly moving in the right direction. view
61 2012-05-08 21:51:55 31755 to previous JukkaZitting Droids is having trouble. Decreasing level of activity, so dropping it from low diversity in February to low activity this month view
60 2012-05-08 20:26:39 31757 to previous JukkaZitting Airavata is still low on diversity, but reports good progress, including success at releasing view
59 2012-05-08 17:49:14 31762 to previous BensonMargulies   view
58 2012-05-08 17:47:59 31764 to previous BensonMargulies   view
57 2012-05-08 13:25:01 31762 to previous JimJagielski   view
56 2012-05-08 13:18:29 31752 to previous RossGardler Shepherd classification of Photark view
55 2012-05-08 13:07:39 31768 to previous RossGardler Shepherd review of Amber view
54 2012-05-07 07:07:33 31769 to previous AteDouma   view
53 2012-05-04 21:20:44 31759 to previous DennisLundberg Signed off NPanday report view
52 2012-05-04 07:41:57 31751 to previous GerhardPetracek   view
51 2012-05-03 15:38:34 31708 to previous DanielKulp   view
50 2012-05-03 15:31:40 31701 to previous coheigea   view
49 2012-05-03 12:52:14 31691 to previous JukkaZitting Divide reports to shepherds view
48 2012-05-03 12:23:35 31412 to previous JukkaZitting Unify report formatting. No content changes apart from a few typo fixes. view
47 2012-05-02 21:30:31 30962 to previous JukkaZitting Add summary template view
46 2012-05-02 15:25:47 30311 to previous RaymondFeng   view
45 2012-05-02 15:24:46 30321 to previous RaymondFeng   view
44 2012-05-02 12:17:55 29140 to previous BrettPorter   view
43 2012-05-02 12:12:28 29134 to previous RossGardler sign off clerrezza and Stanbol view
42 2012-05-02 11:20:00 29114 to previous BertrandDelacretaz   view
41 2012-05-02 11:13:55 29102 to previous DanielSpicar Added Clerezza report view
40 2012-05-02 09:35:43 27507 to previous BertrandDelacretaz   view
39 2012-05-02 08:46:38 27495 to previous BertrandDelacretaz Stanbol additions suggested by Rupert view
38 2012-05-02 03:56:45 27003 to previous BrettPorter   view
37 2012-05-01 18:19:51 26147 to previous AlexHarui   view
36 2012-05-01 16:34:06 23707 to previous KevanMiller   view
35 2012-05-01 14:20:11 23701 to previous ke4qqq overview added to cloudstack view
34 2012-05-01 13:57:45 23212 to previous SureshMarru Adding airavata release vote details. view
33 2012-05-01 13:53:17 23174 to previous RichardFrovarp Add Droids report view
32 2012-05-01 13:11:47 22758 to previous aaronpeeler   view
31 2012-05-01 09:54:39 21122 to previous BertrandDelacretaz Stanbol draft report view
30 2012-05-01 03:08:39 20010 to previous KevinKluge CloudStack update view
29 2012-05-01 01:08:52 19914 to previous ke4qqq Adding a line re: our blockage on account creation. view
28 2012-04-30 21:50:40 19813 to previous KevanMiller   view
27 2012-04-30 18:06:05 19808 to previous GerhardPetracek   view
26 2012-04-30 17:39:26 19857 to previous lresende   view
25 2012-04-30 17:33:54 19229 to previous lresende   view
24 2012-04-30 13:29:22 18019 to previous EmmanuelLecharny Signed the Syncope report view
23 2012-04-30 13:09:46 18009 to previous MattFranklin   view
22 2012-04-30 12:57:03 17998 to previous FrancescoChicchiricco   view
21 2012-04-30 11:31:14 16931 to previous StefanBodewig   view
20 2012-04-30 11:03:28 16790 to previous RossGardler Add Wookie, sign off Airavata view
19 2012-04-29 05:50:33 14630 to previous lresende   view
18 2012-04-27 22:36:30 13175 to previous PrescottNasser Adding Lucene.Net view
17 2012-04-27 21:54:20 11424 to previous ChristianGrobmeier zeta view
16 2012-04-26 11:50:22 11078 to previous SureshMarru adding airavata gsoc projects view
15 2012-04-24 21:16:40 10899 to previous KevanMiller   view
14 2012-04-24 18:54:21 10892 to previous struberg   view
13 2012-04-23 17:08:21 9603 to previous KevinKluge   view
12 2012-04-22 22:54:56 9463 to previous ChrisMattmann - fix duplication for SIS. view
11 2012-04-22 22:53:51 11594 to previous ChrisMattmann - signoff on Airavata report. view
10 2012-04-22 20:50:32 11585 to previous JukkaZitting Resolve edit conflicts view
9 2012-04-22 18:13:11 12120 to previous ke4qqq   view
8 2012-04-22 17:55:28 10914 to previous SureshMarru adding airavata view
7 2012-04-22 17:25:18 5638 to previous ChrisMattmann correct pronoun view
6 2012-04-22 17:17:24 5637 to previous ChrisMattmann more detail on SIS. view
5 2012-04-22 17:15:22 5303 to previous ChrisMattmann some more detail on SIS. view
4 2012-04-22 16:53:56 4521 to previous ChrisMattmann Add stub SIS report. view
3 2012-04-22 11:32:31 2361 to previous JukkaZitting Jena and OpenNLP have graduated. Order Ambari before Amber. view
2 2012-04-22 11:25:32 2528 to previous JukkaZitting Add placeholders based on ReportingSchedule view
1 2012-04-22 11:22:02 1010 JukkaZitting Copy report template view